STARLINK-32367, 60919

Orbit data source: Space-Track

STARLINK-32367, 60919 is a payload satellite owned by SpaceX/Seattle (US) in LEO that was launched on Sat, 31 Aug 2024 UTC via an FALCON 9 launch vehicle from the Air Force Eastern Test Range (AFETR). Payload-class satellites include a variety of spacecraft equipped with specific instruments for various scientific and technological missions. These include communications satellites like Starlink; space stations such as the ISS; scientific satellites like the Hubble; Earth observation satellites from companies like Planet Labs, Umbra, and HawkEye 360; GPS; miniature CubeSats for education and research; and military/defense satellites.

Loading next visibility...
Identifier
60919, 2024-154S
Orbit
LEO
Country
Flag of USUS
Related business
Manufacturer
SpaceX/Seattle
Mission
Operational Commercial Communications
Bus & Motor
STARLINK V2M, Unknown motor
Mass
730 kg wet, ~700 kg dry
Launch date (UTC)
2024-08-31 (2 years ago)
Launch vehicle
FALCON 9
Launch site
Air Force Eastern Test Range (AFETR)
Object type
Payload
Rocket body
Debris
Shape & HBR
Box + 2 Pan, 17.7 m
Radar Cross Section
33.884 m², Large (>1 m²)

Expand to show TLE details & history
Last TLE update: 1 day ago

TLE from 1 day ago
0 STARLINK-32367
1 60919U 24154S   26175.17916622 -.00000032  00000-0  11060-4 0  9994
2 60919  53.1605 148.8801 0001369  91.5897 268.5261 15.30191696102649
Epoch: 2026-06-24T04:17Z
TLE epoch observation values (Epoch: 2026-06-24T04:17:59.961Z)
Latitude
0.00002°
Longitude
172.04018°
Altitude
476.164 km
Speed
7.629 km/s
True Right ascension
09h 55m 31s
True Declination
0° 00' 00"
Sunlit
Object was in daylight at epoch
Visualization orbit readout
Latitude
Unknown
Longitude
Unknown
Altitude
Unknown
Speed
Unknown
Apparent Right ascension
Unknown
Apparent Declination
Unknown
Sunlit
N/A
Visualization observer readout
Local Sidereal Time
17:02:35
Azimuth
Unknown
Elevation
Unknown
Doppler factor
Unknown
Orbital elements
Apogee altitude
476.434 km
Perigee altitude
474.558 km
Semi-major axis
6,853.633 km
Eccentricity
0.00014
Inclination
53.1605°
RAAN
148.8801°
Arg. of periapsis
91.5897°
True anomaly
268.51042°
Mean anomaly
268.5261°
Eccentric anomaly
268.51826°
Mean motion
3.82527 °/min
Orbital period
94.11 mins
BSTAR
0.00001106
Loading maneuver chart data...
Computing Atmospheric mass density...
Loading historical data...
Loading historical data...
Loading historical data...
Loading historical data...
Loading historical data...
Loading historical data...
Loading historical data...

Documentation

Showing up to 5 results
|